Los Angeles, CA

3:21 PM PST on February 12, 2016 (GMT -0800)
Los Angeles International

Weather History for KLAX - April, 2014

Change the Weather History Date:

Tuesday, April 8, 2014

  Actual Average Record
Temperature  
Mean Temperature 69 °F 59 °F  
Max Temperature 80 °F 66 °F 88 °F (1989)
Min Temperature 58 °F 53 °F 45 °F (1953)
Degree Days  
Heating Degree Days 0 6  
Month to date heating degree days 41 49  
Since 1 July heating degree days 686 1199  
Cooling Degree Days 4 0  
Month to date cooling degree days 8 0  
Year to date cooling degree days 43 15  
Growing Degree Days 18 (Base 50)    
Moisture  
Dew Point 48 °F    
Average Humidity 48    
Maximum Humidity 69    
Minimum Humidity 27    
Precipitation  
Precipitation 0.00 in 0.03 in 1.20 in (1965)
Month to date precipitation 0.17 0.26  
Year to date precipitation 3.32 8.07  
Since 1 July precipitation 4.36  
Sea Level Pressure  
Sea Level Pressure 30.06 in    
Wind  
Wind Speed 6 mph (West)    
Max Wind Speed 15 mph    
Max Gust Speed 17 mph    
Visibility 10 miles    
Events      
T = Trace of Precipitation, MM = Missing Value Source: NWS Daily Summary

Daily Weather History Graph

Daily Weather History Graph

Search for Another Location

Airport or City:

Trip Planner

Search our weather history database for the weather conditions in past years. The results will help you decide how hot, cold, wet, or windy it might be!

Date:

Astronomy

Apr. 08, 2014 Rise Set
Actual Time 6:31 AM PDT 7:19 PM PDT
Civil Twilight 6:06 AM PDT 7:45 PM PDT
Nautical Twilight 5:36 AM PDT 8:15 PM PDT
Astronomical Twilight 5:05 AM PDT 8:46 PM PDT
Moon 1:32 PM PDT (4/8) 2:31 AM PDT (4/8)
Length of Visible Light 13h 38m
Length of Day
12h 48m
Waxing Gibbous, 63% of the Moon is Illuminated
Apr 8
Waxing Gibbous
Apr 15
Full
Apr 22
Last Quarter
Apr 28
New
May 6
First Quarter

Hourly Weather History & Observations

Time (PDT) Temp. Dew Point Humidity Pressure Visibility Wind Dir Wind Speed Gust Speed Precip Events Conditions
12:53 AM 63.0 °F 48.9 °F 60% 30.07 in 10.0 mi SE 3.5 mph - N/A   Clear
1:53 AM 64.0 °F 48.9 °F 58% 30.07 in 10.0 mi SSE 4.6 mph - N/A   Clear
2:53 AM 61.0 °F 46.9 °F 60% 30.07 in 10.0 mi Calm Calm - N/A   Clear
3:53 AM 60.1 °F 48.0 °F 64% 30.06 in 10.0 mi West 3.5 mph - N/A   Clear
4:53 AM 60.1 °F 50.0 °F 69% 30.06 in 10.0 mi Calm Calm - N/A   Clear
5:53 AM 60.1 °F 50.0 °F 69% 30.07 in 10.0 mi Calm Calm - N/A   Clear
6:46 AM 59.0 °F 48.2 °F 67% 30.09 in 10.0 mi Calm Calm - N/A   Scattered Clouds
6:53 AM 59.0 °F 48.2 °F 67% 30.08 in 10.0 mi Calm Calm - N/A   Scattered Clouds
7:53 AM 66.2 °F 42.8 °F 43% 30.10 in 10.0 mi Calm Calm - N/A   Scattered Clouds
8:53 AM 69.8 °F 42.8 °F 38% 30.10 in 10.0 mi Calm Calm - N/A   Scattered Clouds
9:53 AM 75.0 °F 41.0 °F 29% 30.10 in 10.0 mi Calm Calm - N/A   Scattered Clouds
10:53 AM 73.0 °F 55.9 °F 55% 30.11 in 10.0 mi West 10.4 mph - N/A   Scattered Clouds
11:53 AM 73.9 °F 50.0 °F 43% 30.10 in 10.0 mi West 9.2 mph - N/A   Mostly Cloudy
12:53 PM 77.0 °F 45.0 °F 32% 30.08 in 10.0 mi West 9.2 mph - N/A   Mostly Cloudy
1:53 PM 78.1 °F 41.0 °F 27% 30.06 in 10.0 mi West 11.5 mph - N/A   Mostly Cloudy
2:53 PM 78.1 °F 41.0 °F 27% 30.04 in 10.0 mi West 13.8 mph - N/A   Mostly Cloudy
3:51 PM 77.0 °F 42.8 °F 29% 30.03 in 10.0 mi West 13.8 mph - N/A   Mostly Cloudy
3:53 PM 77.0 °F 42.1 °F 29% 30.03 in 10.0 mi West 13.8 mph - N/A   Mostly Cloudy
4:53 PM 73.0 °F 45.0 °F 37% 30.02 in 10.0 mi West 13.8 mph - N/A   Mostly Cloudy
5:53 PM 72.0 °F 48.0 °F 43% 30.01 in 10.0 mi West 10.4 mph - N/A   Mostly Cloudy
6:53 PM 66.9 °F 48.9 °F 52% 30.00 in 10.0 mi West 9.2 mph - N/A   Mostly Cloudy
7:53 PM 64.9 °F 50.0 °F 58% 30.01 in 10.0 mi West 8.1 mph - N/A   Mostly Cloudy
8:53 PM 63.0 °F 51.1 °F 65% 30.02 in 10.0 mi WSW 5.8 mph - N/A   Scattered Clouds
9:53 PM 63.0 °F 50.0 °F 63% 30.03 in 10.0 mi WSW 6.9 mph - N/A   Scattered Clouds
10:53 PM 62.1 °F 48.9 °F 62% 30.04 in 10.0 mi WSW 6.9 mph - N/A   Scattered Clouds
11:53 PM 61.0 °F 50.0 °F 67% 30.04 in 10.0 mi West 6.9 mph - N/A   Scattered Clouds